SCP
0 0 0 0 0 0 0 0 0 0 0 0 0 0 0 0 0 0 0 0 0 0 0 0 0 0 0 0 0 0 0 0 0 0 0 0 0 0 0 0 0 0 0 0 0 0 0 0 0 0 0 0 0 0
0 0 0 0 0 0 0 0 0 0 0 0 0 0 0 0 0 0 0 0 0 0 0 0 0 0 0 0 0 0 0 0 0 0 0 0 0 0 0 0 0 0 0 0 0 0 0 -0 0 -0 -0 -0 -0 -0
0 0 0 0 0 0 0 0 0 0 0 0 0 0 0 0 0 0 0 0 0 0 0 0 0 0 0 0 0 0 0 0 0 0 0 0 0 0 0 0 0 0 -0 -0 -0 -0 -0 -0 -0 -0 -0 -0 -0 -0
0 0 0 0 0 0 0 0 0 0 0 0 0 0 0 0 0 0 0 0 0 0 0 0 0 0 0 0 0 0 0 0 0 0 0 0 0 0 0 0 0 0 0 0 0 -0 -0 -0 -0 -0 -0 -0 -0 -0
0 0 0 0 0 0 0 0 0 0 0 0 0 0 0 0 0 0 0 0 0 0 0 0 0 0 0 0 0 0 0 0 0 0 0 0 0 0 0 0 0 0 0 0 0 0 0 -0 -0 -0 -0 -0 -0 -0
0 0 0 0 0 0 0 0 0 0 0 0 0 0 0 0 0 0 0 0 0 0 0 0 0 0 0 0 0 0 0 0 0 0 0 0 0 0 0 0 0 0 0 0 0 0 0 -0 -0 -0 -0 -0 -0 -0
0 0 0 0 0 0 0 0 0 0 0 0 0 0 0 0 0 0 0 0 0 0 0 0 0 0 0 0 0 0 0 0 0 0 0 0 0 0 0 0 0 0 0 0 0 0 0 0 0 0 -0 -0 -0 -0
0 0 0 0 0 0 0 0 0 0 0 0 0 0 0 0 0 0 0 0 0 0 0 0 0 0 0 0 0 0 0 0 0 0 0 0 0 0 0 0 0 0 0 0 0 0 0 0 0 0 0 -0 -0 -0
0 0 0 0 0 0 0 0 0 0 0 0 0 0 0 0 0 0 0 0 0 0 0 0 0 0 0 0 0 0 0 0 0 0 0 0 0 0 0 0 0 0 0 0 0 0 0 0 0 0 0 -0 -0 -0
0 0 0 0 0 0 0 0 0 0 0 0 0 0 0 0 0 0 0 0 0 0 0 0 0 0 0 0 0 0 0 0 0 0 0 0 0 0 0 0 0 0 0 0 0 0 0 0 0 0 0 0 0 0
0 0 0 0 0 0 0 0 0 0 0 0 0 0 0 0 0 0 0 0 0 0 0 0 0 0 0 0 0 0 0 0 0 0 0 0 0 0 0 0 0 0 0 0 0 0 0 0 0 0 0 0 0 0
0 0 0 0 0 0 0 0 0 0 0 0 0 0 0 0 0 0 0 0 0 0 0 0 0 0 0 0 0 0 0 0 0 0 0 0 0 0 0 0 0 0 0 0 0 0 0 0 0 0 0 -0 -0 0
0 0 0 0 0 0 0 0 -0 0 0 0 0 0 0 0 0 0 0 0 0 0 0 0 0 0 0 0 0 0 0 0 0 0 0 0 0 0 0 0 0 0 0 0 0 0 0 0 0 0 0 0 0 0
0 0 0 0 0 0 -0 -0 -0 -0 0 0 0 0 0 0 0 0 0 0 0 0 0 0 0 0 0 0 0 0 0 0 0 0 0 0 0 0 0 0 0 0 0 0 0 -0 -0 -0 0 -0 -0 -0 -0 -0
0 0 0 0 0 -0 -0 -0 -0 0 0 0 0 0 0 0 0 0 0 0 0 0 0 0 0 0 0 0 0 0 0 0 0 0 0 0 0 0 0 0 0 0 0 0 -0 -0 -0 -0 -0 -0 -0 -0 -0 -0
0 0 0 0 -0 -0 -0 0 0 0 0 0 0 0 0 0 0 0 0 0 0 0 0 0 0 0 0 0 0 0 0 0 0 0 0 0 0 0 0 0 0 0 -0 -0 -0 -0 -0 -0 -0 0 -0 0 0 0
0 0 0 0 -0 0 0 0 0 0 0 0 0 0 0 0 0 0 0 0 0 0 0 0 0 0 0 0 0 0 0 0 0 0 0 0 0 0 0 0 -0 -0 -0 -0 -0 0 0 0 0 -0 -0 -0 -0 0
0 0 0 0 0 0 0 0 0 0 0 0 0 0 0 0 0 0 0 0 0 0 0 0 0 0 0 0 0 0 0 0 0 0 0 0 0 0 -0 -0 -0 -0 -0 0 0 0 0 -0 -0 -0 -0 -0 0 0
-0 0 0 0 0 0 0 0 0 0 0 0 0 0 0 0 0 0 0 0 0 0 0 0 0 0 0 0 0 0 0 0 0 0 0 0 -0 -0 -0 -0 -0 0 0 0 -0 0 0 -0 0 0 0 0 -0 -0
0 0 0 0 0 0 0 0 0 0 0 0 0 0 0 0 0 0 0 0 0 0 0 0 0 0 0 0 0 0 0 0 0 0 0 0 -0 -0 -0 0 0 -0 -0 -0 0 0 0 0 0 0 0 0 0 0
0 0 0 0 0 0 0 0 0 0 0 0 0 0 0 0 0 0 0 0 0 0 0 0 0 0 0 0 0 0 0 0 0 -0 -0 -0 0 -0 -0 -0 -0 0 0 0 0 0 0 0 0 0 0 0 0 0
0 0 0 0 0 0 0 0 0 0 0 0 0 0 0 0 0 0 0 0 0 0 0 0 0 0 0 0 0 0 0 -0 -0 -0 -0 -0 0 -0 -0 0 0 0 0 0 0 0 0 -0 -0 -0 -0 0 -0 -0
0 0 0 0 0 0 0 0 0 0 0 0 0 0 0 0 0 0 0 0 0 0 0 0 0 0 0 0 -0 -0 -0 0 0 0 0 0 0 0 0 0 0 0 0 0 0 0 -0 -0 -0 -0 -0 0 -0 -0
0 0 0 0 0 0 0 0 0 0 0 0 0 0 0 0 0 0 0 0 0 0 0 0 0 -0 -0 -0 0 0 0 0 0 0 0 0 0 0 0 0 0 0 0 0 0 0 -0 -0 -0 -0 -0 0 0 0
0 0 0 0 0 0 0 0 0 0 0 0 0 0 0 0 0 0 0 0 0 0 0 -0 -0 -0 -0 0 0 0 0 0 0 0 0 0 0 0 0 0 0 -0 0 0 -0 -0 -0 0 0 0 0 0 0 0
-0 0 0 0 0 0 0 0 0 0 0 0 0 0 0 0 0 0 0 0 0 -0 -0 0 0 -0 0 0 0 0 0 0 0 0 0 0 0 -0 0 0 0 -0 -0 -0 0 0 0 0 0 0 0 0 0 0
0 0 0 0 0 0 0 0 0 0 0 0 0 0 0 0 0 0 -0 -0 -0 0 -0 -0 -0 0 0 0 0 0 0 0 0 0 0 0 -0 -0 -0 -0 -0 0 0 0 0 0 0 0 0 0 0 0 0 0
0 0 0 0 0 0 -0 0 0 0 0 0 -0 0 0 0 -0 -0 0 0 0 -0 0 0 0 0 0 0 0 0 0 0 0 -0 -0 -0 -0 -0 -0 0 0 0 0 0 0 0 0 0 0 0 0 0 0 -0
0 0 -0 -0 0 0 0 -0 -0 -0 -0 -0 0 -0 -0 0 0 0 0 0 0 0 0 0 0 0 0 0 0 0 0 -0 -0 -0 -0 -0 0 0 0 0 0 0 0 0 0 0 0 0 0 0 0 0 0 0
0 0 -0 -0 0 -0 -0 -0 -0 -0 0 0 0 -0 -0 -0 -0 -0 -0 0 0 -0 -0 -0 0 0 0 -0 -0 0 0 0 0 0 0 0 0 0 0 0 0 0 0 0 0 0 0 0 0 0 0 0 0 0
0 0 0 0 0 -0 -0 -0 -0 -0 0 0 0 0 -0 -0 -0 -0 0 0 0 0 0 0 0 0 0 0 0 0 0 0 0 0 0 0 0 0 0 0 0 0 0 0 0 0 0 0 0 0 0 0 0 0
0 0 0 0 0 -0 -0 0 -0 -0 -0 -0 -0 -0 -0 -0 -0 -0 0 0 0 0 0 0 0 0 0 0 0 0 0 0 0 0 0 0 0 0 0 0 0 0 0 0 0 0 0 0 0 0 0 0 0 0
0 0 0 0 0 0 0 -0 -0 -0 -0 -0 0 -0 -0 -0 0 -0 -0 0 0 0 0 0 0 0 0 0 0 0 0 0 0 0 0 0 0 0 0 0 0 0 0 0 0 0 0 0 0 0 0 0 0 0
Wind_Speed_500mb
50 49 50 45 50 50 58 60 54 52 53 48 42 46 42 40 41 40 52 46 48 35 51 40 44 34 20 13 6 11 12 9 4 7 6 4 5 5 9 17 23 13 11 10 14 30 50 43 22 20 29 49 41 52
51 50 53 54 56 55 48 59 54 52 53 52 48 45 42 44 46 45 54 50 45 53 44 40 41 57 65 63 51 27 17 13 10 3 3 4 10 10 26 21 17 13 5 8 10 16 44 29 46 33 24 20 35 48
54 54 53 53 53 54 55 52 59 58 55 53 48 48 46 48 53 48 54 48 44 46 58 69 59 75 73 69 63 34 33 38 30 40 8 6 7 6 3 9 11 11 24 12 24 18 39 63 54 44 59 58 57 52
58 57 55 54 52 56 51 52 54 59 60 56 53 50 52 52 50 44 50 51 53 26 11 38 46 48 50 41 62 79 80 59 41 34 12 6 6 14 7 10 12 17 24 12 25 32 36 39 41 49 54 46 59 70
62 59 57 52 51 53 53 51 53 54 55 55 56 55 54 52 45 43 46 55 55 54 7 13 36 41 28 40 52 51 52 65 48 10 6 7 11 11 12 14 19 29 30 22 31 46 24 48 56 45 28 43 48 51
61 59 61 58 52 51 59 57 52 54 53 50 49 50 52 49 42 39 43 54 57 72 31 9 30 52 50 67 76 76 65 66 44 18 8 18 50 17 8 8 22 49 65 59 28 44 45 54 54 45 63 67 66 63
60 59 58 58 59 50 55 59 55 53 49 50 52 53 51 48 45 50 21 18 29 37 31 7 6 16 51 55 56 59 61 42 40 28 18 30 32 29 15 25 37 67 62 51 44 43 39 33 32 76 60 69 86 93
59 55 56 59 57 55 52 57 52 53 50 51 52 49 46 45 49 59 64 66 57 42 17 6 5 0 14 14 14 43 33 32 24 26 15 12 16 13 13 24 58 54 50 44 21 23 30 52 61 67 73 69 87 99
59 55 54 61 57 51 52 54 52 49 47 44 41 37 39 45 48 70 63 59 61 57 8 11 9 8 14 15 11 12 14 6 10 8 8 12 5 12 18 35 43 10 10 23 37 40 38 36 66 73 66 76 69 90
60 56 56 57 52 49 52 52 48 44 41 38 35 18 11 21 35 36 16 20 27 23 25 6 12 3 13 8 3 3 11 6 7 9 8 8 18 49 29 5 7 8 17 26 41 38 60 78 66 86 79 71 67 79
56 49 51 53 50 49 51 48 47 43 36 36 24 20 20 24 19 12 12 11 7 3 11 17 24 9 27 6 10 17 5 3 5 10 11 4 6 4 12 14 12 17 24 32 38 48 53 59 73 81 96 87 81 77
50 51 51 49 50 50 49 49 47 44 45 34 14 12 11 17 17 10 5 1 3 10 6 7 11 13 11 12 6 5 7 3 10 3 7 5 10 13 20 25 31 38 47 53 55 62 63 60 68 78 82 81 82 82
46 44 47 49 51 50 51 48 50 48 48 31 13 12 10 9 8 13 13 6 2 6 15 10 2 11 9 11 2 4 9 11 3 4 9 6 8 23 37 45 53 56 60 66 71 70 70 74 72 67 78 79 79 80
44 43 43 44 45 45 45 47 46 46 25 16 15 13 11 7 6 6 8 7 1 3 16 15 5 6 8 4 5 7 8 4 5 6 13 2 19 42 49 54 62 70 70 73 76 76 75 69 72 71 69 72 74 76
35 34 42 46 46 45 45 41 45 44 17 11 11 10 8 8 9 9 15 12 7 5 7 4 2 2 2 2 6 2 3 9 11 10 1 15 40 47 51 57 62 68 72 75 73 73 73 72 70 70 67 64 57 52
32 36 40 37 37 38 36 40 44 22 19 11 6 7 3 6 2 6 9 8 6 7 5 2 3 2 8 7 6 13 8 12 7 4 22 38 46 52 55 56 60 63 64 67 66 65 63 61 63 65 58 47 41 41
27 37 29 26 32 34 42 49 20 8 9 8 2 15 13 14 10 7 6 5 3 5 5 3 8 18 4 5 7 3 8 2 7 31 34 43 47 51 51 56 58 58 60 61 59 54 52 52 52 48 48 41 35 32
28 32 31 21 26 55 47 25 12 8 10 10 3 5 11 12 13 8 6 3 5 6 4 5 2 4 9 9 7 5 3 20 26 30 43 43 40 40 44 50 52 52 54 49 43 44 45 44 43 42 38 32 28 27
14 4 24 48 48 26 12 8 7 9 9 11 19 16 11 15 11 5 4 4 8 7 4 3 3 6 5 2 5 6 22 23 32 42 42 35 35 40 41 43 48 45 40 36 37 35 34 29 33 32 29 24 25 24
43 28 17 18 22 13 11 11 9 15 5 8 11 11 12 10 13 14 9 8 7 5 5 3 4 5 3 4 15 23 21 20 25 38 40 36 38 39 38 42 38 33 31 32 33 29 30 31 29 28 24 22 25 27
20 27 22 21 22 16 13 10 14 10 13 12 16 5 10 8 6 5 6 5 4 4 2 5 7 3 12 14 10 13 15 17 20 21 31 38 34 31 38 35 31 31 35 39 41 36 34 33 28 26 27 28 26 26
16 20 19 13 11 10 16 15 14 12 10 12 8 7 8 3 3 4 4 7 3 3 4 2 5 7 3 2 4 9 13 10 8 10 10 13 23 32 39 41 41 41 41 41 41 40 37 32 29 29 31 32 32 34
19 11 9 10 11 16 7 9 8 7 7 1 7 6 4 3 4 3 4 1 2 3 1 2 3 6 8 10 10 9 10 9 13 14 14 14 16 21 29 39 43 44 45 46 45 44 43 38 36 36 36 36 38 39
17 11 15 13 17 3 4 11 7 8 7 5 5 3 1 2 2 4 3 5 6 4 5 5 9 12 13 13 16 17 17 16 19 20 18 16 18 22 25 29 33 35 37 39 41 43 43 43 40 39 38 37 37 37
8 20 13 11 15 10 10 8 9 7 4 3 5 1 2 2 2 2 4 5 15 12 12 13 13 13 14 12 10 10 10 10 12 15 18 20 18 15 19 24 26 30 30 30 37 38 38 37 38 37 37 37 37 35
15 16 10 4 7 8 2 5 2 3 1 3 0 2 0 2 2 7 5 15 18 20 20 18 16 14 10 8 5 4 5 7 8 9 11 16 19 23 24 26 25 27 29 30 29 29 29 28 28 28 28 28 28 26
9 6 10 12 5 6 7 7 2 4 3 4 3 2 2 3 7 5 8 16 16 20 19 17 15 12 10 6 4 5 8 12 12 11 13 11 12 14 20 24 26 27 26 26 27 27 27 26 24 22 22 21 20 19
8 8 6 8 7 7 7 3 3 4 4 2 2 3 6 9 7 3 9 19 18 21 20 18 13 8 4 0 4 7 9 10 12 10 9 7 9 11 17 20 23 26 28 28 28 26 25 25 24 22 21 21 20 20
9 5 2 6 4 5 3 6 7 4 4 5 5 4 6 6 6 5 11 20 23 23 22 18 13 10 5 3 7 8 9 8 7 9 9 10 10 12 14 17 20 22 24 25 27 29 29 29 28 26 24 22 20 20
8 9 4 3 5 1 1 3 1 5 7 9 8 9 10 10 8 12 18 25 29 26 20 19 18 16 12 10 8 8 11 10 10 12 15 15 17 17 19 22 23 27 30 31 31 30 29 30 30 30 29 28 27 25
6 3 2 2 4 3 2 7 13 13 10 8 15 13 13 13 10 11 18 22 24 27 29 28 24 21 20 17 18 18 15 15 16 20 24 26 26 27 28 30 31 35 39 41 41 41 40 38 36 36 33 31 29 30
5 3 4 2 3 2 5 6 4 3 4 5 5 6 7 8 8 3 4 18 30 32 27 25 26 19 16 22 26 26 25 26 28 29 32 33 33 32 35 37 39 42 45 47 47 46 45 45 43 39 38 35 33 33
3 3 2 3 3 1 5 11 2 5 5 4 5 4 5 6 9 4 3 2 4 7 10 16 19 21 23 25 25 25 27 28 28 29 29 30 33 37 43 47 50 52 54 53 51 48 47 46 45 42 39 38 37 38
Wind_Direction_500mb
274 275 275 277 275 272 271 269 269 264 262 264 261 270 270 264 255 250 260 255 252 260 267 251 241 230 209 194 174 261 338 280 295 222 201 264 288 358 329 333 310 280 325 296 310 264 266 24 17 14 299 304 341 335
271 276 276 278 276 277 283 263 268 265 262 262 262 262 266 268 264 254 258 260 259 254 260 270 267 256 244 249 250 232 219 177 237 77 360 14 317 305 295 281 297 295 12 303 320 318 314 301 316 314 302 309 319 319
271 273 275 273 276 277 272 270 268 268 268 263 261 263 265 266 262 255 257 261 265 262 270 262 255 260 249 249 244 230 240 252 234 237 195 212 227 131 214 262 275 279 283 290 320 286 299 304 316 335 339 335 327 324
264 265 271 274 277 274 267 268 268 266 263 264 263 265 266 268 261 255 257 261 255 248 245 268 269 250 258 241 241 240 250 250 253 247 207 182 200 213 228 235 235 258 295 264 273 280 286 291 307 324 324 314 318 318
266 264 264 266 273 273 274 265 267 266 262 262 261 262 264 262 258 260 263 264 260 244 263 265 282 266 258 253 241 242 240 241 237 222 187 218 233 229 241 262 257 257 262 269 276 292 300 300 314 326 312 321 321 316
266 268 266 266 265 272 272 273 268 269 265 260 261 263 265 256 251 263 277 272 269 255 248 253 260 260 259 254 238 247 247 233 219 205 215 230 240 229 236 219 245 252 254 262 281 289 292 298 301 307 320 323 320 314
260 266 270 268 267 268 271 271 270 268 268 266 268 264 259 251 249 243 235 255 298 250 222 234 249 258 244 238 241 245 244 230 227 231 235 240 248 250 255 261 267 261 269 280 283 291 293 289 302 310 319 316 317 316
259 260 268 267 263 264 268 268 271 269 266 267 266 259 254 255 257 256 254 256 260 258 257 228 218 143 197 197 211 230 226 221 223 226 234 227 251 220 249 248 260 272 273 277 257 282 287 297 302 307 314 318 318 317
258 254 264 266 261 262 264 264 268 269 267 266 262 255 260 257 256 259 271 265 249 228 235 204 162 232 194 213 222 176 205 208 231 225 227 201 212 223 228 260 278 263 293 300 296 304 310 304 309 311 313 316 313 309
258 252 260 265 259 260 259 262 266 268 265 260 249 241 223 236 265 253 232 209 209 223 214 190 153 184 157 124 128 208 210 216 209 239 205 196 239 249 284 275 68 342 316 320 332 330 324 316 314 313 313 308 302 298
260 255 260 262 258 258 261 261 261 262 257 248 209 195 238 259 258 236 236 184 170 322 215 196 182 171 213 143 204 205 174 199 219 259 153 270 278 238 57 39 1 339 330 323 313 306 306 303 304 305 308 306 303 299
265 260 259 261 261 260 258 256 254 248 244 222 187 195 221 210 202 197 210 44 173 216 223 154 195 176 166 189 125 200 185 109 238 157 109 257 241 46 7 346 332 328 324 321 320 317 316 307 308 305 302 300 300 302
272 267 265 262 259 255 254 249 247 238 238 190 190 193 194 220 213 177 179 255 249 218 174 157 215 160 169 183 147 135 218 223 81 85 215 222 59 355 346 336 329 328 327 324 322 322 320 318 317 307 304 306 306 306
262 263 262 260 255 252 250 247 236 231 201 162 175 195 182 197 223 183 180 181 297 294 126 136 115 160 166 153 197 236 229 107 218 211 230 75 342 335 335 333 329 327 327 325 324 324 324 319 314 317 315 315 312 308
263 263 264 259 252 247 241 236 226 206 153 175 168 196 185 126 88 119 119 122 79 70 97 92 47 193 296 241 206 85 315 241 209 224 108 314 325 328 325 327 327 326 325 323 326 325 324 324 325 320 320 319 319 321
264 277 265 255 235 231 239 233 192 137 146 167 127 125 76 86 21 82 73 96 86 135 138 141 144 148 236 183 168 220 155 221 240 236 306 320 320 323 325 326 325 324 323 323 325 324 325 328 326 319 326 333 333 333
258 268 274 248 243 241 218 147 130 97 88 93 55 92 99 86 113 120 111 131 127 151 175 159 168 214 339 241 227 1 222 183 289 314 320 320 321 325 327 326 328 327 327 327 325 328 329 332 328 331 335 344 346 341
250 274 264 259 159 153 115 88 98 97 73 62 103 64 89 97 109 121 143 130 148 140 127 203 17 191 212 210 250 225 318 304 317 319 322 330 332 332 331 329 331 332 328 328 331 335 337 336 337 340 346 351 359 10
273 282 140 142 128 108 98 77 83 96 81 96 113 106 98 109 104 115 138 123 152 154 153 112 185 217 215 179 181 254 314 318 312 320 327 342 347 343 341 342 339 334 337 343 348 344 345 348 351 353 0 9 25 33
126 129 132 127 129 77 77 59 73 90 103 108 108 100 96 84 99 79 91 132 134 128 63 82 190 175 163 255 301 299 306 319 324 324 333 355 1 355 357 350 346 352 360 11 10 10 10 16 18 19 26 37 50 49
127 120 128 137 73 68 88 72 64 76 109 88 113 79 90 95 82 58 58 83 70 47 149 152 153 243 292 297 289 302 320 323 320 308 318 332 359 7 9 10 17 22 25 27 17 21 28 30 29 38 50 55 61 70
121 128 115 86 75 72 79 59 91 101 82 116 101 84 86 47 45 65 62 63 101 131 132 155 309 327 15 9 3 344 340 339 334 338 341 357 13 26 25 25 33 36 37 35 33 32 35 38 47 57 66 72 78 82
133 121 72 60 77 49 30 76 83 50 94 171 105 55 18 39 76 91 55 65 134 136 85 64 95 90 84 75 50 42 50 59 61 59 58 54 48 48 47 40 40 41 43 46 48 47 48 52 58 64 70 75 80 82
106 57 37 45 42 73 48 33 57 65 81 58 74 77 358 212 114 52 238 254 182 183 167 133 139 134 112 100 87 80 72 65 68 66 64 61 54 45 41 42 43 42 42 44 47 49 50 52 54 58 62 66 67 68
100 12 20 14 27 52 43 20 4 52 81 336 97 129 275 146 158 233 229 213 189 191 178 162 150 140 132 120 101 76 62 50 48 49 45 42 40 40 38 30 26 25 26 33 37 38 42 45 46 47 50 52 54 55
68 8 48 360 4 82 32 77 50 162 66 69 138 281 243 111 190 243 227 183 184 185 179 174 168 154 136 128 108 67 22 351 325 316 335 349 2 10 13 12 16 19 15 17 18 20 21 24 27 31 37 39 40 43
72 349 39 41 71 95 61 43 71 87 87 156 261 359 163 218 244 248 174 183 183 177 171 166 161 152 137 115 68 11 359 2 349 332 323 319 343 356 5 7 10 10 10 11 10 9 9 8 7 6 4 1 2 5
90 45 93 355 58 45 127 79 95 171 214 163 70 184 197 202 242 210 190 183 176 176 172 169 170 178 176 19 358 347 328 319 340 341 342 339 346 351 358 2 5 6 3 1 0 359 0 359 359 357 357 354 348 342
53 51 48 27 48 50 155 158 207 189 181 190 161 252 257 249 253 256 202 188 190 193 194 197 200 205 220 306 321 327 333 325 324 343 344 344 355 353 357 356 357 356 356 357 354 350 348 346 345 341 337 334 332 329
19 10 71 54 98 268 158 187 235 217 236 237 268 282 274 271 274 238 213 203 205 209 213 221 228 235 245 271 292 297 315 321 320 327 333 337 333 332 330 327 326 325 327 330 333 335 332 328 325 322 320 318 315 312
344 340 87 107 199 157 225 290 290 276 256 258 249 254 277 300 295 241 221 211 212 219 228 236 243 249 257 269 284 292 296 300 314 320 318 318 317 316 315 314 315 315 315 315 316 316 315 316 317 316 315 312 310 309
354 37 125 41 290 266 310 332 278 255 238 249 244 255 283 287 279 256 236 224 229 235 242 245 250 260 272 272 275 286 293 293 297 302 303 308 311 313 311 310 312 311 311 309 308 307 307 307 309 310 311 312 314 314
328 343 348 333 347 29 344 341 20 331 246 258 242 260 259 263 248 239 235 236 238 226 229 240 250 254 260 274 284 289 290 294 296 297 300 302 307 312 311 312 312 311 310 308 306 305 303 302 300 301 301 304 307 310
Wind_Speed_850mb
50 49 50 45 50 50 58 60 54 52 53 48 42 46 42 40 41 40 52 46 48 35 51 40 44 34 20 13 6 11 12 9 4 7 6 4 5 5 9 17 23 13 11 10 14 30 50 43 22 20 29 49 41 52
51 50 53 54 56 55 48 59 54 52 53 52 48 45 42 44 46 45 54 50 45 53 44 40 41 57 65 63 51 27 17 13 10 3 3 4 10 10 26 21 17 13 5 8 10 16 44 29 46 33 24 20 35 48
54 54 53 53 53 54 55 52 59 58 55 53 48 48 46 48 53 48 54 48 44 46 58 69 59 75 73 69 63 34 33 38 30 40 8 6 7 6 3 9 11 11 24 12 24 18 39 63 54 44 59 58 57 52
58 57 55 54 52 56 51 52 54 59 60 56 53 50 52 52 50 44 50 51 53 26 11 38 46 48 50 41 62 79 80 59 41 34 12 6 6 14 7 10 12 17 24 12 25 32 36 39 41 49 54 46 59 70
62 59 57 52 51 53 53 51 53 54 55 55 56 55 54 52 45 43 46 55 55 54 7 13 36 41 28 40 52 51 52 65 48 10 6 7 11 11 12 14 19 29 30 22 31 46 24 48 56 45 28 43 48 51
61 59 61 58 52 51 59 57 52 54 53 50 49 50 52 49 42 39 43 54 57 72 31 9 30 52 50 67 76 76 65 66 44 18 8 18 50 17 8 8 22 49 65 59 28 44 45 54 54 45 63 67 66 63
60 59 58 58 59 50 55 59 55 53 49 50 52 53 51 48 45 50 21 18 29 37 31 7 6 16 51 55 56 59 61 42 40 28 18 30 32 29 15 25 37 67 62 51 44 43 39 33 32 76 60 69 86 93
59 55 56 59 57 55 52 57 52 53 50 51 52 49 46 45 49 59 64 66 57 42 17 6 5 0 14 14 14 43 33 32 24 26 15 12 16 13 13 24 58 54 50 44 21 23 30 52 61 67 73 69 87 99
59 55 54 61 57 51 52 54 52 49 47 44 41 37 39 45 48 70 63 59 61 57 8 11 9 8 14 15 11 12 14 6 10 8 8 12 5 12 18 35 43 10 10 23 37 40 38 36 66 73 66 76 69 90
60 56 56 57 52 49 52 52 48 44 41 38 35 18 11 21 35 36 16 20 27 23 25 6 12 3 13 8 3 3 11 6 7 9 8 8 18 49 29 5 7 8 17 26 41 38 60 78 66 86 79 71 67 79
56 49 51 53 50 49 51 48 47 43 36 36 24 20 20 24 19 12 12 11 7 3 11 17 24 9 27 6 10 17 5 3 5 10 11 4 6 4 12 14 12 17 24 32 38 48 53 59 73 81 96 87 81 77
50 51 51 49 50 50 49 49 47 44 45 34 14 12 11 17 17 10 5 1 3 10 6 7 11 13 11 12 6 5 7 3 10 3 7 5 10 13 20 25 31 38 47 53 55 62 63 60 68 78 82 81 82 82
46 44 47 49 51 50 51 48 50 48 48 31 13 12 10 9 8 13 13 6 2 6 15 10 2 11 9 11 2 4 9 11 3 4 9 6 8 23 37 45 53 56 60 66 71 70 70 74 72 67 78 79 79 80
44 43 43 44 45 45 45 47 46 46 25 16 15 13 11 7 6 6 8 7 1 3 16 15 5 6 8 4 5 7 8 4 5 6 13 2 19 42 49 54 62 70 70 73 76 76 75 69 72 71 69 72 74 76
35 34 42 46 46 45 45 41 45 44 17 11 11 10 8 8 9 9 15 12 7 5 7 4 2 2 2 2 6 2 3 9 11 10 1 15 40 47 51 57 62 68 72 75 73 73 73 72 70 70 67 64 57 52
32 36 40 37 37 38 36 40 44 22 19 11 6 7 3 6 2 6 9 8 6 7 5 2 3 2 8 7 6 13 8 12 7 4 22 38 46 52 55 56 60 63 64 67 66 65 63 61 63 65 58 47 41 41
27 37 29 26 32 34 42 49 20 8 9 8 2 15 13 14 10 7 6 5 3 5 5 3 8 18 4 5 7 3 8 2 7 31 34 43 47 51 51 56 58 58 60 61 59 54 52 52 52 48 48 41 35 32
28 32 31 21 26 55 47 25 12 8 10 10 3 5 11 12 13 8 6 3 5 6 4 5 2 4 9 9 7 5 3 20 26 30 43 43 40 40 44 50 52 52 54 49 43 44 45 44 43 42 38 32 28 27
14 4 24 48 48 26 12 8 7 9 9 11 19 16 11 15 11 5 4 4 8 7 4 3 3 6 5 2 5 6 22 23 32 42 42 35 35 40 41 43 48 45 40 36 37 35 34 29 33 32 29 24 25 24
43 28 17 18 22 13 11 11 9 15 5 8 11 11 12 10 13 14 9 8 7 5 5 3 4 5 3 4 15 23 21 20 25 38 40 36 38 39 38 42 38 33 31 32 33 29 30 31 29 28 24 22 25 27
20 27 22 21 22 16 13 10 14 10 13 12 16 5 10 8 6 5 6 5 4 4 2 5 7 3 12 14 10 13 15 17 20 21 31 38 34 31 38 35 31 31 35 39 41 36 34 33 28 26 27 28 26 26
16 20 19 13 11 10 16 15 14 12 10 12 8 7 8 3 3 4 4 7 3 3 4 2 5 7 3 2 4 9 13 10 8 10 10 13 23 32 39 41 41 41 41 41 41 40 37 32 29 29 31 32 32 34
19 11 9 10 11 16 7 9 8 7 7 1 7 6 4 3 4 3 4 1 2 3 1 2 3 6 8 10 10 9 10 9 13 14 14 14 16 21 29 39 43 44 45 46 45 44 43 38 36 36 36 36 38 39
17 11 15 13 17 3 4 11 7 8 7 5 5 3 1 2 2 4 3 5 6 4 5 5 9 12 13 13 16 17 17 16 19 20 18 16 18 22 25 29 33 35 37 39 41 43 43 43 40 39 38 37 37 37
8 20 13 11 15 10 10 8 9 7 4 3 5 1 2 2 2 2 4 5 15 12 12 13 13 13 14 12 10 10 10 10 12 15 18 20 18 15 19 24 26 30 30 30 37 38 38 37 38 37 37 37 37 35
15 16 10 4 7 8 2 5 2 3 1 3 0 2 0 2 2 7 5 15 18 20 20 18 16 14 10 8 5 4 5 7 8 9 11 16 19 23 24 26 25 27 29 30 29 29 29 28 28 28 28 28 28 26
9 6 10 12 5 6 7 7 2 4 3 4 3 2 2 3 7 5 8 16 16 20 19 17 15 12 10 6 4 5 8 12 12 11 13 11 12 14 20 24 26 27 26 26 27 27 27 26 24 22 22 21 20 19
8 8 6 8 7 7 7 3 3 4 4 2 2 3 6 9 7 3 9 19 18 21 20 18 13 8 4 0 4 7 9 10 12 10 9 7 9 11 17 20 23 26 28 28 28 26 25 25 24 22 21 21 20 20
9 5 2 6 4 5 3 6 7 4 4 5 5 4 6 6 6 5 11 20 23 23 22 18 13 10 5 3 7 8 9 8 7 9 9 10 10 12 14 17 20 22 24 25 27 29 29 29 28 26 24 22 20 20
8 9 4 3 5 1 1 3 1 5 7 9 8 9 10 10 8 12 18 25 29 26 20 19 18 16 12 10 8 8 11 10 10 12 15 15 17 17 19 22 23 27 30 31 31 30 29 30 30 30 29 28 27 25
6 3 2 2 4 3 2 7 13 13 10 8 15 13 13 13 10 11 18 22 24 27 29 28 24 21 20 17 18 18 15 15 16 20 24 26 26 27 28 30 31 35 39 41 41 41 40 38 36 36 33 31 29 30
5 3 4 2 3 2 5 6 4 3 4 5 5 6 7 8 8 3 4 18 30 32 27 25 26 19 16 22 26 26 25 26 28 29 32 33 33 32 35 37 39 42 45 47 47 46 45 45 43 39 38 35 33 33
3 3 2 3 3 1 5 11 2 5 5 4 5 4 5 6 9 4 3 2 4 7 10 16 19 21 23 25 25 25 27 28 28 29 29 30 33 37 43 47 50 52 54 53 51 48 47 46 45 42 39 38 37 38
Wind_Direction_850mb
274 275 275 277 275 272 271 269 269 264 262 264 261 270 270 264 255 250 260 255 252 260 267 251 241 230 209 194 174 261 338 280 295 222 201 264 288 358 329 333 310 280 325 296 310 264 266 24 17 14 299 304 341 335
271 276 276 278 276 277 283 263 268 265 262 262 262 262 266 268 264 254 258 260 259 254 260 270 267 256 244 249 250 232 219 177 237 77 360 14 317 305 295 281 297 295 12 303 320 318 314 301 316 314 302 309 319 319
271 273 275 273 276 277 272 270 268 268 268 263 261 263 265 266 262 255 257 261 265 262 270 262 255 260 249 249 244 230 240 252 234 237 195 212 227 131 214 262 275 279 283 290 320 286 299 304 316 335 339 335 327 324
264 265 271 274 277 274 267 268 268 266 263 264 263 265 266 268 261 255 257 261 255 248 245 268 269 250 258 241 241 240 250 250 253 247 207 182 200 213 228 235 235 258 295 264 273 280 286 291 307 324 324 314 318 318
266 264 264 266 273 273 274 265 267 266 262 262 261 262 264 262 258 260 263 264 260 244 263 265 282 266 258 253 241 242 240 241 237 222 187 218 233 229 241 262 257 257 262 269 276 292 300 300 314 326 312 321 321 316
266 268 266 266 265 272 272 273 268 269 265 260 261 263 265 256 251 263 277 272 269 255 248 253 260 260 259 254 238 247 247 233 219 205 215 230 240 229 236 219 245 252 254 262 281 289 292 298 301 307 320 323 320 314
260 266 270 268 267 268 271 271 270 268 268 266 268 264 259 251 249 243 235 255 298 250 222 234 249 258 244 238 241 245 244 230 227 231 235 240 248 250 255 261 267 261 269 280 283 291 293 289 302 310 319 316 317 316
259 260 268 267 263 264 268 268 271 269 266 267 266 259 254 255 257 256 254 256 260 258 257 228 218 143 197 197 211 230 226 221 223 226 234 227 251 220 249 248 260 272 273 277 257 282 287 297 302 307 314 318 318 317
258 254 264 266 261 262 264 264 268 269 267 266 262 255 260 257 256 259 271 265 249 228 235 204 162 232 194 213 222 176 205 208 231 225 227 201 212 223 228 260 278 263 293 300 296 304 310 304 309 311 313 316 313 309
258 252 260 265 259 260 259 262 266 268 265 260 249 241 223 236 265 253 232 209 209 223 214 190 153 184 157 124 128 208 210 216 209 239 205 196 239 249 284 275 68 342 316 320 332 330 324 316 314 313 313 308 302 298
260 255 260 262 258 258 261 261 261 262 257 248 209 195 238 259 258 236 236 184 170 322 215 196 182 171 213 143 204 205 174 199 219 259 153 270 278 238 57 39 1 339 330 323 313 306 306 303 304 305 308 306 303 299
265 260 259 261 261 260 258 256 254 248 244 222 187 195 221 210 202 197 210 44 173 216 223 154 195 176 166 189 125 200 185 109 238 157 109 257 241 46 7 346 332 328 324 321 320 317 316 307 308 305 302 300 300 302
272 267 265 262 259 255 254 249 247 238 238 190 190 193 194 220 213 177 179 255 249 218 174 157 215 160 169 183 147 135 218 223 81 85 215 222 59 355 346 336 329 328 327 324 322 322 320 318 317 307 304 306 306 306
262 263 262 260 255 252 250 247 236 231 201 162 175 195 182 197 223 183 180 181 297 294 126 136 115 160 166 153 197 236 229 107 218 211 230 75 342 335 335 333 329 327 327 325 324 324 324 319 314 317 315 315 312 308
263 263 264 259 252 247 241 236 226 206 153 175 168 196 185 126 88 119 119 122 79 70 97 92 47 193 296 241 206 85 315 241 209 224 108 314 325 328 325 327 327 326 325 323 326 325 324 324 325 320 320 319 319 321
264 277 265 255 235 231 239 233 192 137 146 167 127 125 76 86 21 82 73 96 86 135 138 141 144 148 236 183 168 220 155 221 240 236 306 320 320 323 325 326 325 324 323 323 325 324 325 328 326 319 326 333 333 333
258 268 274 248 243 241 218 147 130 97 88 93 55 92 99 86 113 120 111 131 127 151 175 159 168 214 339 241 227 1 222 183 289 314 320 320 321 325 327 326 328 327 327 327 325 328 329 332 328 331 335 344 346 341
250 274 264 259 159 153 115 88 98 97 73 62 103 64 89 97 109 121 143 130 148 140 127 203 17 191 212 210 250 225 318 304 317 319 322 330 332 332 331 329 331 332 328 328 331 335 337 336 337 340 346 351 359 10
273 282 140 142 128 108 98 77 83 96 81 96 113 106 98 109 104 115 138 123 152 154 153 112 185 217 215 179 181 254 314 318 312 320 327 342 347 343 341 342 339 334 337 343 348 344 345 348 351 353 0 9 25 33
126 129 132 127 129 77 77 59 73 90 103 108 108 100 96 84 99 79 91 132 134 128 63 82 190 175 163 255 301 299 306 319 324 324 333 355 1 355 357 350 346 352 360 11 10 10 10 16 18 19 26 37 50 49
127 120 128 137 73 68 88 72 64 76 109 88 113 79 90 95 82 58 58 83 70 47 149 152 153 243 292 297 289 302 320 323 320 308 318 332 359 7 9 10 17 22 25 27 17 21 28 30 29 38 50 55 61 70
121 128 115 86 75 72 79 59 91 101 82 116 101 84 86 47 45 65 62 63 101 131 132 155 309 327 15 9 3 344 340 339 334 338 341 357 13 26 25 25 33 36 37 35 33 32 35 38 47 57 66 72 78 82
133 121 72 60 77 49 30 76 83 50 94 171 105 55 18 39 76 91 55 65 134 136 85 64 95 90 84 75 50 42 50 59 61 59 58 54 48 48 47 40 40 41 43 46 48 47 48 52 58 64 70 75 80 82
106 57 37 45 42 73 48 33 57 65 81 58 74 77 358 212 114 52 238 254 182 183 167 133 139 134 112 100 87 80 72 65 68 66 64 61 54 45 41 42 43 42 42 44 47 49 50 52 54 58 62 66 67 68
100 12 20 14 27 52 43 20 4 52 81 336 97 129 275 146 158 233 229 213 189 191 178 162 150 140 132 120 101 76 62 50 48 49 45 42 40 40 38 30 26 25 26 33 37 38 42 45 46 47 50 52 54 55
68 8 48 360 4 82 32 77 50 162 66 69 138 281 243 111 190 243 227 183 184 185 179 174 168 154 136 128 108 67 22 351 325 316 335 349 2 10 13 12 16 19 15 17 18 20 21 24 27 31 37 39 40 43
72 349 39 41 71 95 61 43 71 87 87 156 261 359 163 218 244 248 174 183 183 177 171 166 161 152 137 115 68 11 359 2 349 332 323 319 343 356 5 7 10 10 10 11 10 9 9 8 7 6 4 1 2 5
90 45 93 355 58 45 127 79 95 171 214 163 70 184 197 202 242 210 190 183 176 176 172 169 170 178 176 19 358 347 328 319 340 341 342 339 346 351 358 2 5 6 3 1 0 359 0 359 359 357 357 354 348 342
53 51 48 27 48 50 155 158 207 189 181 190 161 252 257 249 253 256 202 188 190 193 194 197 200 205 220 306 321 327 333 325 324 343 344 344 355 353 357 356 357 356 356 357 354 350 348 346 345 341 337 334 332 329
19 10 71 54 98 268 158 187 235 217 236 237 268 282 274 271 274 238 213 203 205 209 213 221 228 235 245 271 292 297 315 321 320 327 333 337 333 332 330 327 326 325 327 330 333 335 332 328 325 322 320 318 315 312
344 340 87 107 199 157 225 290 290 276 256 258 249 254 277 300 295 241 221 211 212 219 228 236 243 249 257 269 284 292 296 300 314 320 318 318 317 316 315 314 315 315 315 315 316 316 315 316 317 316 315 312 310 309
354 37 125 41 290 266 310 332 278 255 238 249 244 255 283 287 279 256 236 224 229 235 242 245 250 260 272 272 275 286 293 293 297 302 303 308 311 313 311 310 312 311 311 309 308 307 307 307 309 310 311 312 314 314
328 343 348 333 347 29 344 341 20 331 246 258 242 260 259 263 248 239 235 236 238 226 229 240 250 254 260 274 284 289 290 294 296 297 300 302 307 312 311 312 312 311 310 308 306 305 303 302 300 301 301 304 307 310